Flag for Russia Weather past 2 weeks in Sochi, Russia

Now
45 °F

Sprinkles. More clouds than sun.


Feels Like: 40 °F
Forecast: 38 / 44 °F
Wind: 8 mph from East

Location: Adler

Current Time: Mar 4, 2015 at 11:11:14 AM

Latest Report: Mar 4, 2015 at 10:30 AM


Visibility: 5 mi

Pressure: 30.01 "Hg

Humidity: 87%

Dew point: 41 °F

Location of SochiLocation

Historic Weather in Sochi — Graph

°F

Sochi temperature yesterday

Maximum temperature yesterday: 52 °F (at 11:30 AM)
Minimum temperature yesterday: 37 °F (at 5:30 AM)
Average temperature yesterday: 45 °F

Past Weeks' High & Low Weather Summary

 TemperatureHumidityPressure
High63 °F (Feb 24, 12:30 PM)100% (Mar 1, 10:30 AM)30.30 "Hg (Mar 1, 10:30 AM)
Low30 °F (Feb 18, 5:00 AM)25% (Feb 24, 2:00 PM)29.80 "Hg (Feb 28, 3:30 AM)
Average46 °F68%30.06 "Hg
* Reported Feb 17 9:00 AM — Mar 4 9:30 AM, Sochi, Weather by CustomWeather, © 2015

Note: Actual official high and low records may vary slightly from our data, if they occured in-between our weather recording intervals... More about our weather records

Advertising

Sochi weather history for previous 24 hours

 ConditionsComfort  
Time TempWeatherWind HumidityBarometerVisibility
9:30 AM
Wed, Mar 4
45 °FSprinkles. Overcast.6 mph81%30.01 "Hg6 mi
9:00 AM43 °FOvercast.8 mph81%30.01 "HgN/A
8:30 AM43 °FOvercast.3 mph81%29.98 "HgN/A
8:00 AM43 °FOvercast.1 mph81%29.98 "HgN/A
7:30 AM43 °FMostly cloudy.1 mph81%29.98 "HgN/A
7:00 AM39 °FPassing clouds.6 mph87%29.95 "HgN/A
6:30 AM41 °FPassing clouds.6 mph81%29.95 "HgN/A
6:00 AM39 °FPassing clouds.3 mph87%29.95 "HgN/A
5:30 AM41 °FPassing clouds.1 mph81%29.95 "HgN/A
5:00 AM39 °FPassing clouds.8 mph87%29.92 "HgN/A
4:30 AM41 °FPassing clouds.10 mph81%29.92 "HgN/A
4:00 AM37 °FPassing clouds.8 mph87%29.95 "HgN/A
3:30 AM39 °FPassing clouds.3 mph87%29.95 "HgN/A
3:00 AM39 °FPassing clouds.No wind87%29.95 "HgN/A
2:30 AM39 °FPassing clouds.No wind87%29.95 "HgN/A
2:00 AM39 °FPassing clouds.3 mph87%29.95 "HgN/A
1:30 AM39 °FPassing clouds.3 mph87%29.95 "HgN/A
1:00 AM39 °FPassing clouds.No wind87%29.95 "HgN/A
12:30 AM41 °FPassing clouds.No wind87%29.95 "HgN/A
12:00 AM41 °FPassing clouds.1 mph81%29.95 "HgN/A
11:30 PM
Tue, Mar 3
41 °FPassing clouds.No wind87%29.95 "HgN/A
10:30 PM41 °FPassing clouds.No wind87%29.98 "HgN/A
10:00 PM39 °FPassing clouds.3 mph87%29.98 "HgN/A
9:30 PM41 °FPassing clouds.No wind81%29.98 "HgN/A
9:00 PM43 °FOvercast.3 mph81%29.98 "HgN/A
8:30 PM43 °FOvercast.No wind81%29.98 "HgN/A
8:00 PM45 °FOvercast.No wind76%29.98 "Hg6 mi
7:30 PM46 °FOvercast.No wind71%29.98 "HgN/A
7:00 PM48 °FOvercast.3 mph71%29.98 "HgN/A
6:30 PM48 °FOvercast.3 mph71%29.98 "HgN/A
6:00 PM48 °FOvercast.6 mph71%30.01 "HgN/A
5:30 PM50 °FPartly sunny.6 mph67%30.01 "HgN/A
5:00 PM50 °FPartly sunny.8 mph67%30.01 "HgN/A
4:30 PM50 °FPartly sunny.8 mph71%30.01 "HgN/A
4:00 PM50 °FPartly sunny.8 mph67%30.01 "HgN/A
3:30 PM52 °FScattered clouds.8 mph62%30.01 "HgN/A
3:00 PM50 °FScattered clouds.8 mph67%30.01 "HgN/A
2:30 PM50 °FScattered clouds.8 mph71%30.01 "HgN/A
2:00 PM50 °FScattered clouds.8 mph67%30.01 "HgN/A
1:30 PM50 °FScattered clouds.8 mph67%30.04 "HgN/A
1:00 PM50 °FScattered clouds.10 mph67%30.04 "HgN/A
12:30 PM50 °FScattered clouds.10 mph67%30.04 "HgN/A
12:00 PM50 °FScattered clouds.8 mph67%30.04 "HgN/A
11:30 AM52 °FScattered clouds.8 mph62%30.04 "HgN/A
11:00 AM50 °FScattered clouds.6 mph62%30.04 "HgN/A
Weather by CustomWeather, © 2015

See weather overviewHow to use our weather pages